Regional Weather Roundup
Issued by NWS Jackson, KY

Home | Current Version | Previous Version | Text Only | Print | Product List | Glossary Off
Versions: 1 2 3 4 5 6 7 8 9 10 11 12 13 14 15 16 17 18 19 20 21 22 23 24 25 26 27 28 29 30 31 32 33 34 35 36 37 38 39 40 41 42 43 44 45 46 47 48 49 50

575
ASUS43 KJKL 261110
RWRJKL

EAST KENTUCKY HOURLY WEATHER ROUNDUP
NATIONAL WEATHER SERVICE JACKSON KY
700 AM EDT WED JUL 26 2017

NOTE: "FAIR" INDICATES FEW OR NO CLOUDS BELOW 12,000 FEET WITH
NO SIGNIFICANT WEATHER AND/OR OBSTRUCTIONS TO VISIBILITY.

* THESE REPORTS ARE NOT UNDER NWS QUALITY CONTROL AND MAY NOT
  REPORT WEATHER SUCH AS PRECIPITATION AND FOG.

KYZ079-080-083-085-087-088-110-112-115-119-120-261200
...EASTERN KENTUCKY...

CITY           SKY/WX    TMP DP  RH WIND       PRES   REMARKS
JACKSON        CLEAR     61  59  93 CALM      30.18R FOG
LONDON         CLEAR     63  60  90 NE3       30.17R
SOMERSET*      MOCLDY    63  63 100 CALM      30.17R
MONTICELLO*    PTCLDY    65  65 100 N9        30.17R FOG
WILLIAMSBURG*  CLOUDY    64  64 100 CALM      30.17R VSB<1/4
MIDDLESBORO*   CLOUDY    65  65 100 CALM      30.19R FOG
PIKE CO APT*     N/A     60  60 100 N5        30.19R FOG
BIG SANDY APT* SUNNY     60  60 100 CALM      30.18S FOG
MOREHEAD APT*  SUNNY     59  57  94 CALM      30.18F
ASHLAND*       MOCLDY    59  59 100 CALM      30.16S VSB 1
$$

KYZ035-036-041-042-044-050-067-078-099-261200
...CENTRAL KENTUCKY...

CITY           SKY/WX    TMP DP  RH WIND       PRES   REMARKS
MT STERLING*   CLEAR     59  59 100 CALM      30.19R
FLEMING/MASON* CLEAR     57  57  99 E3        30.18F
DANVILLE*      CLEAR     61  61 100 CALM      30.17R
LEXINGTON      CLEAR     64  59  83 E7        30.16F
FRANKFORT      CLEAR     64  59  83 NE5       30.14S
LOUISVILLE     PTCLDY    69  62  78 E3        30.13S
LEBANON*         N/A     64  63  94 CALM      30.14S
GLASGOW*       CLEAR     68  68 100 CALM      30.12S
BOWLING GREEN  CLEAR     72  69  90 CALM      30.11S
$$

KYZ091>093-OHZ055-061-077-WVZ005-015-034-035-042-261200
...SOUTHERN OHIO/WEST VIRGINIA...

CITY           SKY/WX    TMP DP  RH WIND       PRES   REMARKS
COVINGTON      PTCLDY    62  61  96 SE7       30.15S
COLUMBUS       PTCLDY    59  59 100 E3        30.17F
DAYTON         PTCLDY    57  55  93 E3        30.17F
WILMINGTON     CLEAR     55  55 100 E3        30.16F FOG
HUNTINGTON     CLEAR     59  57  93 CALM      30.17R FOG
CHARLESTON     FOG       58  57  97 CALM      30.19R VSB 1/2
PINEVILLE*     MOCLDY    60  59  97 MISG      30.25R
BECKLEY        PTCLDY    62  57  83 E6G16     30.24R
BLUEFIELD      CLOUDY    62  57  83 E6        30.26R
LOGAN CO APT*  PTSUNNY   63  61  94 CALM      30.19R FOG
$$

VAZ002-007-008-TNZ017-027-036-066-071-261200
...SOUTHWEST VIRGINIA/EAST TENNESSEE...

CITY           SKY/WX    TMP DP  RH WIND       PRES   REMARKS
WISE*          CLEAR     63  63 100 SW3       30.25R
JONESVILLE*    FOG       63  63 100 CALM      30.20S VSB<1/4
ABINGDON*      CLOUDY    68  61  76 E5        30.21R
BRISTOL        PTCLDY    65  64  97 CALM      30.18R
MORRISTOWN*    SUNNY     66  66 100 CALM      30.17R FOG
KNOXVILLE      PTCLDY    70  66  87 NW5       30.15R
LAFOLLETTE*    SUNNY     64  64 100 CALM      30.20S FOG
OAK RIDGE      CLEAR     69  65  86 CALM      30.17R
CROSSVILLE     CLEAR     66  64  93 CALM      30.20R FOG
NASHVILLE      PTCLDY    75  73  93 CALM      30.12R
$$

...KEY TO REMARKS...
VSB - VISIBILITY IN MILES
WCI - WIND CHILL INDEX
HX  - HEAT INDEX

$$




USA.gov is the U.S. government's official web portal to all federal, state and local government web resources and services.